Regional Weather Roundup
Issued by NWS Raleigh/Durham, NC

Home | Current Version | Previous Version | Text Only | Print | Product List | Glossary On
Versions: 1 2 3 4 5 6 7 8 9 10 11 12 13 14 15 16 17 18 19 20 21 22 23 24 25 26 27 28 29 30 31 32 33 34 35 36 37 38 39 40 41 42 43 44 45 46 47 48 49 50
000
ASUS42 KRAH 231110
RWRRAH
NORTH CAROLINA WEATHER ROUNDUP
NATIONAL WEATHER SERVICE RALEIGH NC
700 AM EDT SAT AUG 23 2014

NOTE: "FAIR" INDICATES FEW OR NO CLOUDS BELOW 12,000 FEET WITH NO
SIGNIFICANT WEATHER AND/OR OBSTRUCTIONS TO VISIBILITY.

NCZ001-053-055-056-065-067-231200-
WESTERN NORTH CAROLINA

CITY           SKY/WX    TMP DP  RH WIND       PRES   REMARKS
ASHEVILLE      CLEAR     66  64  93 VRB3      30.07R
JEFFERSON      CLOUDY    70  63  77 NW10G17   30.09S
MORGANTON      PTCLDY    67  67 100 CALM      30.04R
HICKORY        PTCLDY    72  67  84 NW5       29.99R
RUTHERFORDTON  CLEAR     70  69  95 CALM      29.99S
MOUNT AIRY     CLOUDY    73  69  90 CALM      30.01R
BOONE          MOCLDY    67  65  94 W7        30.11R
$$

NCZ021-022-025-041-071-084-088-231200-
CENTRAL NORTH CAROLINA

CITY           SKY/WX    TMP DP  RH WIND       PRES   REMARKS
CHARLOTTE      MOCLDY    74  71  91 N5        29.96R
GREENSBORO     MOCLDY    74  71  91 CALM      29.96S
WINSTON-SALEM  PTCLDY    72  68  87 CALM      29.98R
RALEIGH-DURHAM CLOUDY    75  71  87 E3        29.94R
FORT BRAGG     MOCLDY    74  71  91 NE1       29.92S
FAYETTEVILLE   MOCLDY    73  71  93 CALM      29.92R
BURLINGTON     MOCLDY    75  72  90 W5        29.95R
LAURINBURG     PTCLDY    74  71  91 NE5       29.93R FOG
$$

NCZ011-015-027-028-043-044-047-080-103-231200-
NORTHEASTERN NORTH CAROLINA

CITY           SKY/WX    TMP DP  RH WIND       PRES   REMARKS
ROCKY MT-WILSO MOCLDY    73  72  96 NE3       29.95S FOG
GREENVILLE     LGT RAIN  73  72  94 CALM      29.97R
WASHINGTON     MOCLDY    73  72  94 CALM      29.95R
ELIZABETH CITY CLEAR     74  72  93 NE5       29.94R
MANTEO         PTCLDY    75  72  88 NE6       29.94R
CAPE HATTERAS  CLOUDY    75  73  93 NE3       29.92R
$$

NCZ078-087-090-091-093-098-101-231200-
SOUTHEASTERN NORTH CAROLINA

CITY           SKY/WX    TMP DP  RH WIND       PRES   REMARKS
LUMBERTON      PTCLDY    76  72  87 NE3       29.91R
GOLDSBORO      MOCLDY    74  74  98 NE7       29.92R
KINSTON        LGT RAIN  75  72  88 NE3       29.95R
KENANSVILLE    PTCLDY    72  71  96 CALM      29.94R
NEW BERN       MOCLDY    78  73  84 E6        29.94S
CHERRY POINT   CLOUDY    78  74  87 N6        29.94R
BEAUFORT       PTCLDY    79  75  87 CALM      29.92S
JACKSONVILLE   CLOUDY    76  72  87 NE6       29.92R
WILMINGTON     MOCLDY    74  72  93 CALM      29.91S
$$




USA.gov is the U.S. government's official web portal to all federal, state and local government web resources and services.